Regional Weather Roundup
Issued by NWS

Home | Current Version | Previous Version | Text Only | Print | Product List | Glossary Off
Versions: 1 2 3 4 5 6 7 8 9 10 11 12 13 14 15 16 17 18 19 20 21 22 23 24 25 26 27 28 29 30 31 32 33 34 35 36 37 38 39 40 41 42 43 44 45 46 47 48 49 50

213
ASUS45 KBOU 241010
RWRCO

WEATHER ROUNDUP FOR COLORADO
NATIONAL WEATHER SERVICE DENVER/BOULDER CO
300 AM MST SAT FEB 24 2018

NOTE: "FAIR" INDICATES FEW OR NO CLOUDS BELOW 12000 FEET WITH NO
SIGNIFICANT WEATHER AND/OR OBSTRUCTIONS TO VISIBILITY.

COZ001>005-013-030-031-241100-
...NORTHWEST COLORADO...

CITY           SKY/WX    TMP DP  RH WIND       PRES   REMARKS
CRAIG          LGT SNOW  15  10  80 W6        29.95S WCI   6
HAYDEN         LGT SNOW  13  11  92 W14       29.92F FOG     WCI  -2
MEEKER         CLOUDY    18   9  68 NW6       29.94S WCI  10
RANGELY        PTSUNNY   17  12  79 SW3       30.01S
RABBIT EARS PA SNOW       1  -2  85 W13G22    29.70S VSB 1/2 WCI -16
STEAMBOAT SPGS CLOUDY    13  10  90 S7        29.88F WCI   3
WALDEN         FAIR       9   3  78 S6        29.77F WCI  -1
$$

COZ006>008-011-241100-
...WEST CENTRAL VALLEYS...

CITY           SKY/WX    TMP DP  RH WIND       PRES   REMARKS
GRAND JUNCTION CLOUDY    25  16  68 W12       30.00R WCI  14
MONTROSE       CLOUDY    21  18  88 S3        29.98S
EAGLE          FAIR      22  13  68 W8        29.88S WCI  12
RIFLE          CLOUDY    23  12  62 NW15      29.95S WCI  10
DELTA          FAIR      28  18  67 W14       29.97S WCI  16
NUCLA          MOCLDY    18  14  86 E5        30.01S WCI  11
$$

COZ017>023-064>068-241100-
...SOUTHWEST COLORADO...

CITY           SKY/WX    TMP DP  RH WIND       PRES   REMARKS
DURANGO        FAIR      17  13  84 W6        29.90R WCI   9
CORTEZ         FAIR      11   9  92 E5        29.99R WCI   3
PAGOSA SPRINGS CLOUDY    18  16  91 CALM      29.86F
TELLURIDE      LGT SNOW  12  10  90 W6        29.87S WCI   3
WOLF CREEK PAS CLOUDY     1   0  92 S16G29    29.74S WCI -18
$$

COZ009-010-012-014-032>034-037-058>063-241100-
...CENTRAL COLORADO...

CITY           SKY/WX    TMP DP  RH WIND       PRES   REMARKS
ASPEN          LGT SNOW  16  13  88 N7        29.82R FOG     WCI   6
BUENA VISTA    FAIR      19   4  52 NW8G18    29.76R WCI   9
COPPER MTN     LGT SNOW   5  -2  72 W23G29    29.63F WCI -17
BERTHOUD PASS  CLOUDY    -4 -15  59 NW25G33   29.58F WCI -30
COTTONWOOD PAS MOCLDY    19   5  53 W20G33    29.70S WCI   4
GUNNISON       CLOUDY    18  11  74 SW14      29.82  WCI   4
GRANBY         CLOUDY    14   6  69 CALM      29.78S
KREMMLING      CLOUDY    23   7  50 NW6       29.83S WCI  16
LEADVILLE      LGT SNOW   6   3  87 N3        29.71S FOG
MONARCH PASS   CLOUDY     1  -2  85 W26       29.75F WCI -23
SALIDA         FAIR      22   5  48 W8        29.83F WCI  13
SUNLIGHT       CLOUDY     3   0  85 W9G20     29.78F WCI -11
WILKERSON PASS FAIR       5   1  85 SW10G20   29.66F WCI -10
$$

COZ069>075-241100-
...SAN LUIS VALLEY/SANGRE DE CRISTO MOUNTAINS...

CITY           SKY/WX    TMP DP  RH WIND       PRES   REMARKS
ALAMOSA        FAIR      17   7  64 W12       29.77S WCI   4
DEL NORTE      MOCLDY    17  12  79 W3        29.79S
LA VETA PASS   CLOUDY    12   9  85 S23G40    29.76F WCI  -7
SAGUACHE       FAIR      18  10  73 NW14      29.79S WCI   4
$$

COZ035-036-038>040-241100-
...NORTHERN COLORADO FRONT RANGE...

CITY           SKY/WX    TMP DP  RH WIND       PRES   REMARKS
DENVER INTL AP CLOUDY    23  20  88 W12       29.79F FOG     WCI  12
AURORA         CLOUDY    24  23  94 W5        29.79S WCI  18
FRONT RANGE AP CLOUDY    25  24  95 W10G18    29.79S FOG     WCI  15
ERIE MUNI ARPT CLOUDY    25  23  93 CALM      29.86F
BOULDER MUN AP CLOUDY    25  23  93 CALM      29.80S
CENTENNIAL     CLOUDY    24  21  88 CALM      29.78S FOG
BROOMFIELD     NOT AVBL
FORT COLLINS   CLOUDY    23  21  92 N3        29.81F
LONGMONT       CLOUDY    27  23  86 N3        29.83F
$$

COZ041-046-047-076>085-087-088-241100-
...PIKES PEAK/PALMER DIVIDE AND SOUTHERN FOOTHILLS...

CITY           SKY/WX    TMP DP  RH WIND       PRES   REMARKS
COLO. SPRINGS  FOG       21  20  96 CALM      29.78F VSB 1/4
A. F. ACADEMY  CLOUDY    21  19  93 S5        29.76S WCI  15
SCHRIEVER AFB  NOT AVBL
CHEYENNE MTN     N/A     19  18  96 SE7       29.70F WCI   9
ELLICOTT       CLOUDY   N/A N/A N/A W5        29.76F
FALCON         FOG       19  19  96 SW3       29.76F VSB 1/2
FORT CARSON    CLOUDY    23  21  93 S5        29.78F FOG     WCI  17
LIMON          CLOUDY    22  21  96 S6        29.79F WCI  14
MONUMENT HILL  CLOUDY    19  18  93 SW6       29.77S WCI  11
CANON CITY     CLOUDY    27  25  93 MISG      29.80F
WALSENBURG     NOT AVBL
TRINIDAD       FAIR      21  19  92 SE3       29.80F
$$

COZ042>045-048>051-090-091-241100-
...NORTHEAST COLORADO...

CITY           SKY/WX    TMP DP  RH WIND       PRES   REMARKS
GREELEY ARPT   MOCLDY    22  20  92 N6        29.83S WCI  14
AKRON          CLOUDY    22  21  96 SE8       29.80F WCI  12
BURLINGTON     CLOUDY    24  23  96 SW7       29.85F WCI  16
WRAY           LGT SNOW  25  25 100 SE9       29.87F WCI  15
YUMA           NOT AVBL
STERLING       CLOUDY    27  23  86 E6        29.84F WCI  20
HOLYOKE        LGT SNOW  25  21  86 SE8       29.87F WCI  16
FORT MORGAN    CLOUDY    26  22  85 CALM      29.82F
$$

COZ086-089-092>099-241100-
...SOUTHEAST COLORADO...

CITY           SKY/WX    TMP DP  RH WIND       PRES   REMARKS
PUEBLO         CLOUDY    26  24  92 CALM      29.83S
LA JUNTA       CLOUDY    27  24  89 E5        29.85F FOG     WCI  22
LAMAR          CLOUDY    26  23  88 E6        29.85F WCI  19
SPRINGFIELD      N/A     25  25 100 E6        29.83F WCI  18
$$




USA.gov is the U.S. government's official web portal to all federal, state and local government web resources and services.